GFSFLT2_con_lsi_009.txt.gz
Lid_Strength_Index
8 9 10 13 15 13 16 16 16 15 12 10 8 7 7 6 6 6 5 5 5 4 4 3 3 3 2 2 2 3 5 6
9 9 10 11 11 15 16 18 18 15 14 13 10 10 8 7 7 6 5 5 5 4 4 3 3 2 2 2 2 3 5 6
10 11 12 12 14 14 14 15 16 17 14 10 9 9 8 7 6 6 5 5 4 4 3 3 3 2 2 2 2 3 4 5
12 10 10 11 12 12 13 15 16 15 14 9 8 8 7 7 6 6 5 5 4 4 3 3 3 3 3 2 2 3 4 5
14 13 12 12 11 13 14 14 15 15 14 9 9 8 7 7 6 6 6 5 4 4 4 3 3 3 3 2 2 2 4 5
13 13 12 12 11 11 12 15 15 14 12 10 9 9 9 8 7 6 6 6 5 4 4 3 3 3 3 3 2 2 3 4
11 10 11 11 11 11 12 12 12 12 12 10 9 9 8 7 8 7 7 6 5 4 4 4 3 3 3 2 2 2 3 4
12 11 11 11 11 11 10 12 12 12 12 9 8 8 8 7 7 7 6 5 5 4 4 4 4 3 3 3 2 2 2 3
13 12 11 13 12 11 10 9 10 12 10 9 9 8 7 7 6 6 6 5 5 5 4 4 3 3 3 3 2 3 2 3
13 13 15 12 9 8 9 9 9 9 10 8 8 6 7 7 7 7 6 6 5 5 4 4 3 3 3 2 2 3 3 4
15 15 11 11 9 10 10 11 8 9 8 7 7 7 7 7 7 7 7 7 6 4 4 4 3 3 3 3 3 3 3 4
14 15 15 11 9 7 8 13 7 7 8 7 7 10 9 7 7 6 6 5 5 4 3 4 3 3 4 4 4 4 4 4
15 16 13 10 8 7 13 13 8 7 8 8 9 8 8 7 6 6 5 4 4 4 4 4 3 4 5 4 5 5 4 4
15 16 17 8 8 12 9 8 7 7 7 7 7 6 6 5 6 5 5 5 4 4 4 3 4 4 5 5 5 5 5 6
13 14 9 8 9 7 7 7 7 7 7 6 6 6 5 5 5 5 4 4 3 4 4 4 4 5 5 6 6 5 5 6
12 10 9 8 7 6 6 6 6 6 6 6 6 5 5 5 5 5 4 4 4 4 5 6 5 5 5 6 6 5 5 5
11 9 8 7 7 6 5 5 6 6 5 5 6 6 5 5 5 5 4 4 5 6 6 7 6 6 5 5 4 4 4 4
13 8 9 7 6 5 7 7 7 7 7 7 7 7 5 5 5 5 5 5 5 6 7 7 6 6 5 4 4 4 4 4
9 6 6 6 6 6 7 7 7 7 7 7 7 6 6 6 5 5 5 5 6 5 6 6 6 5 4 4 3 3 5 4

GFSFLT2_con_lsi_015.txt.gz
Lid_Strength_Index
8 8 8 9 11 8 10 11 12 11 10 7 6 6 6 5 5 5 4 4 4 3 3 2 2 2 2 2 1 1 1 1
8 8 8 9 8 11 11 14 15 12 11 9 8 7 6 6 6 5 4 4 4 3 3 2 2 2 1 1 1 1 1 1
9 10 10 10 10 10 9 10 13 14 11 7 7 6 6 5 5 5 4 4 4 3 3 2 2 2 2 1 1 1 1 1
9 7 8 8 9 9 11 12 10 10 10 6 6 5 5 5 4 4 4 4 3 3 3 3 2 2 2 2 2 1 1 1
10 8 7 9 8 8 9 9 11 11 10 6 5 5 5 5 4 4 4 4 4 3 3 3 3 2 2 2 2 1 1 1
12 10 8 9 8 8 9 10 10 10 8 6 6 6 5 5 5 4 4 4 4 4 3 3 3 2 2 2 1 1 1 1
9 8 8 8 8 8 9 8 10 8 9 6 6 6 5 5 5 5 5 4 4 4 4 3 3 3 2 2 1 1 1 1
10 8 8 9 8 8 8 8 8 8 8 5 5 5 5 5 5 5 5 4 4 4 3 3 3 3 2 2 2 1 2 2
12 9 9 11 8 8 7 7 7 9 7 5 6 6 5 5 5 5 5 4 4 4 3 3 3 2 2 2 1 2 2 2
12 11 14 9 6 7 7 6 6 6 5 5 5 4 4 4 4 5 4 4 3 3 3 2 2 2 1 1 2 2 2 2
13 12 10 9 8 8 8 8 5 6 5 5 5 5 5 4 3 3 3 3 3 2 2 2 2 2 2 2 2 2 2 2
12 14 14 11 8 7 7 10 6 6 6 6 6 8 6 4 3 3 3 3 3 2 2 2 2 2 2 2 2 2 2 2
14 15 12 9 8 7 12 10 7 6 6 6 7 6 5 4 4 3 3 3 2 2 3 2 2 2 3 2 3 2 1 1
14 15 16 7 8 11 8 6 6 6 6 6 5 5 4 4 4 4 4 3 3 3 3 2 2 2 3 3 2 1 1 2
12 13 8 6 7 6 5 6 5 5 5 5 5 5 4 5 4 4 4 4 3 3 3 2 2 2 3 2 2 2 2 2
11 9 8 7 5 5 4 5 4 4 4 4 6 5 5 4 4 4 3 3 3 3 3 3 2 2 2 2 1 2 2 2
10 9 8 7 6 5 5 5 5 5 4 4 5 5 5 5 4 4 3 3 3 3 3 3 2 2 1 1 1 2 2 2
11 8 8 7 5 5 6 6 5 5 5 4 4 4 3 4 4 3 4 3 3 3 3 3 2 2 1 1 1 2 2 2
8 6 7 6 7 6 7 7 6 6 6 6 5 3 3 4 4 4 3 3 3 3 3 2 2 2 1 1 1 1 2 2

GFSFLT2_con_lsi_021.txt.gz
Lid_Strength_Index
5 5 5 7 8 6 9 8 10 9 7 6 5 5 4 4 3 3 3 3 3 2 2 2 2 1 1 1 1 1 1 1
5 5 5 6 5 9 8 13 14 10 9 9 7 6 5 4 4 3 3 3 3 2 2 2 1 1 1 1 1 1 1 1
6 7 7 7 8 7 7 9 12 13 10 6 6 5 5 4 4 3 3 3 3 2 2 2 1 1 1 1 1 1 1 1
8 5 5 6 7 7 10 11 9 10 9 5 4 4 4 4 3 3 2 2 2 2 2 2 2 2 1 1 1 1 1 1
9 7 6 7 7 6 7 7 10 11 10 5 4 4 4 4 3 3 2 2 2 2 2 2 2 2 2 1 1 1 1 1
10 9 7 8 7 7 7 9 9 9 8 6 5 5 4 3 3 3 2 2 2 2 2 2 2 2 2 1 1 1 1 1
7 7 7 7 7 7 8 7 9 8 8 6 5 5 4 3 3 3 3 2 3 3 2 2 2 2 2 1 1 1 1 1
8 7 7 8 7 7 7 7 7 7 7 5 4 4 4 3 3 3 3 2 2 2 2 2 2 2 2 2 1 1 1 1
10 8 8 10 8 7 7 6 7 8 6 4 5 4 4 4 3 3 3 3 2 2 3 2 2 2 2 2 1 1 1 1
10 9 14 8 5 6 6 6 5 5 5 5 4 4 3 3 3 3 3 2 2 2 2 2 2 2 1 1 1 2 2 2
11 11 9 8 7 7 8 8 5 5 5 4 4 3 4 3 2 2 2 2 2 1 2 2 2 1 2 2 2 2 2 2
10 13 14 9 7 6 6 9 5 5 5 5 4 6 5 3 2 2 2 1 2 1 2 2 2 1 2 2 2 2 2 2
11 12 9 7 6 5 11 10 6 5 5 5 6 4 2 2 2 2 2 2 1 1 2 2 1 1 2 2 3 2 1 1
10 12 13 6 6 9 8 5 5 5 5 5 4 3 2 3 3 3 2 2 2 2 2 2 1 2 2 2 1 1 1 1
8 9 6 5 6 5 5 5 5 4 4 4 4 4 4 4 3 3 3 2 2 2 2 2 2 2 3 2 1 1 1 2
9 8 7 6 5 4 4 5 4 4 4 4 4 4 4 4 3 3 3 3 2 2 3 3 2 2 2 1 1 2 2 2
9 7 6 6 5 4 4 3 4 4 4 4 4 5 4 4 3 3 3 2 2 3 3 3 2 2 1 1 1 2 2 2
11 6 7 6 4 4 4 4 3 4 4 3 4 4 4 4 3 3 3 2 2 3 3 2 2 2 1 1 1 2 2 2
9 5 5 4 4 5 4 4 4 3 3 3 3 3 3 3 3 3 3 3 3 3 2 2 2 2 1 1 1 2 2 2

GFSFLT2_con_lsi_024.txt.gz
Lid_Strength_Index
6 5 6 7 9 7 9 9 11 10 8 6 6 6 6 5 4 4 4 4 3 3 3 2 2 2 2 2 2 2 1 1
6 5 6 7 6 9 9 13 15 11 10 10 8 8 6 5 5 4 4 3 3 3 3 2 2 2 2 2 2 2 1 1
6 7 8 8 8 8 8 9 12 13 11 6 7 7 6 5 4 4 3 3 3 3 2 2 2 2 2 2 2 2 1 1
8 6 5 6 8 8 10 11 9 10 10 5 5 5 5 5 4 3 3 3 3 3 3 2 2 2 2 2 2 2 1 1
10 8 6 7 7 7 7 8 10 12 10 5 5 5 5 4 4 4 4 3 3 3 3 3 2 2 2 2 2 1 1 2
11 9 7 8 8 7 8 10 10 9 9 7 6 6 5 4 4 3 2 2 2 2 3 3 2 2 2 2 1 1 2 2
8 7 7 8 8 8 8 8 10 8 8 7 6 6 5 4 3 3 3 4 3 3 2 3 3 2 2 2 2 1 2 2
9 7 8 8 7 7 7 8 8 7 8 5 4 4 5 5 4 4 4 3 3 3 3 2 3 3 2 2 2 1 2 2
11 8 8 10 8 8 7 7 7 9 7 5 5 5 4 5 4 4 4 3 3 3 3 3 2 2 3 2 2 2 2 2
11 10 15 8 6 6 7 6 6 6 5 5 5 4 4 3 4 4 3 3 2 2 3 2 2 2 2 2 2 2 2 2
12 12 9 8 7 7 7 8 5 6 5 5 4 4 4 3 3 3 3 3 2 2 2 2 2 2 2 2 2 2 3 2
10 13 14 9 6 5 6 10 5 6 6 5 5 8 6 3 3 2 2 2 2 2 2 2 2 2 2 3 3 3 2 2
11 12 10 7 6 5 12 10 6 6 5 5 6 6 4 3 3 2 2 2 2 0 1 2 2 2 3 3 3 2 2 2
11 13 14 6 6 9 7 5 5 5 5 5 5 4 4 3 3 3 3 2 2 1 1 2 2 3 3 3 2 2 2 2
9 10 8 6 7 5 5 5 5 5 4 4 4 4 4 4 3 3 3 3 2 2 3 2 2 2 3 3 2 2 2 2
9 7 7 6 5 4 4 4 4 4 4 4 4 4 4 4 3 3 3 3 3 3 4 3 2 2 2 2 2 2 2 2
8 7 7 6 5 4 4 4 5 4 5 5 5 5 4 4 4 4 3 3 3 4 4 3 3 2 2 2 2 2 2 2
12 9 8 7 5 4 5 5 4 4 5 4 4 5 5 4 4 4 4 3 4 4 4 3 3 2 2 1 2 2 3 3
9 7 7 5 4 4 4 4 4 4 3 4 3 4 4 4 4 4 4 3 3 3 3 3 3 2 2 2 2 2 3 3

GFSFLT2_con_lsi_030.txt.gz
Lid_Strength_Index
8 8 9 12 14 11 15 15 17 15 12 10 7 7 6 6 6 6 5 5 4 3 3 3 3 3 2 2 2 2 2 1
8 8 8 10 11 14 17 17 17 16 14 13 10 9 7 7 6 5 5 5 4 4 3 3 2 2 2 2 2 2 2 1
10 10 11 11 13 14 13 14 15 17 14 11 10 8 8 7 6 5 5 5 4 4 3 3 2 2 2 2 2 2 2 1
12 10 8 9 11 13 14 17 15 13 14 8 9 7 7 6 5 5 5 5 4 4 3 3 3 3 3 2 2 2 2 2
15 12 10 11 11 10 15 15 14 16 15 9 9 7 7 7 6 5 6 6 5 4 4 3 3 3 3 2 2 2 2 2
15 14 12 13 11 11 12 13 14 14 14 11 10 8 7 6 6 6 6 5 5 4 4 3 3 3 3 3 2 2 2 2
14 11 10 10 10 10 12 11 13 13 13 12 10 8 7 6 6 6 6 5 5 4 4 3 3 3 3 2 2 2 2 2
14 11 11 11 10 10 10 10 11 13 13 10 9 8 8 6 6 6 7 6 5 4 3 4 3 3 3 3 2 2 2 3
17 12 11 13 11 10 10 9 10 13 11 10 9 7 7 6 6 6 7 6 5 4 4 3 3 3 3 3 2 2 3 2
17 15 16 11 9 8 10 10 9 10 10 9 8 8 5 6 6 6 7 5 5 4 4 3 3 3 2 2 2 3 3 3
17 16 13 10 10 10 11 11 8 9 9 8 8 7 8 6 6 8 7 7 5 4 4 4 3 2 3 3 3 3 3 3
14 16 17 12 8 6 8 13 8 8 8 7 8 11 10 6 5 6 5 5 6 3 3 3 3 3 3 3 3 3 3 3
14 14 13 9 7 7 12 12 8 8 7 7 9 7 6 5 6 6 4 5 5 6 5 3 3 2 3 3 3 2 2 2
13 15 16 8 9 11 9 8 7 7 7 7 7 7 6 6 6 5 6 4 4 5 5 5 3 3 3 3 2 2 2 2
13 14 9 8 9 8 7 8 8 8 7 7 7 7 6 6 6 5 5 5 4 4 5 4 3 3 4 3 2 2 3 3
12 9 10 8 8 7 6 7 6 6 6 6 7 6 6 6 6 5 5 5 4 4 5 5 4 3 3 3 2 3 3 3
11 9 9 8 8 7 6 6 6 6 6 6 6 7 6 6 6 5 5 5 5 4 4 4 4 4 3 3 2 3 3 3
13 9 9 9 8 6 7 8 7 7 7 7 7 8 6 6 6 5 5 4 4 5 5 4 4 4 4 3 3 3 4 5
9 7 7 7 7 7 7 6 6 7 7 7 7 7 6 7 6 5 4 4 4 4 4 4 3 3 3 3 4 5 5 6

GFSFLT2_con_lsi_033.txt.gz
Lid_Strength_Index
9 9 9 13 14 12 17 16 18 16 13 10 8 8 8 6 6 5 5 4 4 4 3 3 3 3 2 2 2 2 2 1
10 9 10 11 12 15 18 18 18 17 15 14 10 9 8 7 7 6 5 5 4 4 3 3 2 2 2 2 2 2 2 1
11 13 12 13 14 16 15 16 17 19 16 11 10 8 8 7 6 5 5 5 4 4 3 3 2 2 2 2 2 2 2 2
13 11 9 10 12 15 16 17 17 15 15 11 8 9 8 7 6 5 5 4 4 4 3 3 3 3 3 2 2 2 2 2
17 15 13 13 12 11 12 16 15 17 16 11 9 9 7 7 6 5 5 5 5 5 5 4 3 3 3 2 2 2 2 2
18 17 14 15 13 12 13 15 14 14 15 13 11 10 7 7 6 6 5 5 5 5 5 4 3 3 3 3 2 2 2 2
15 14 13 13 12 11 14 13 14 13 14 12 11 10 8 6 6 6 6 5 5 5 5 5 4 3 3 2 2 2 2 2
16 13 13 13 12 12 12 11 13 13 14 11 10 10 9 8 7 6 6 6 6 5 4 4 3 3 3 3 3 2 2 3
19 15 14 15 13 12 11 11 11 13 13 11 11 11 10 9 7 6 6 5 7 7 5 4 3 3 3 3 2 2 3 2
19 17 19 13 10 9 11 11 11 11 11 10 9 9 8 8 7 6 6 7 7 6 6 4 3 3 2 2 2 3 3 3
19 18 15 12 11 11 12 12 10 10 9 10 9 8 9 6 6 5 6 6 6 5 5 4 3 2 3 3 3 3 3 3
17 19 18 13 9 7 8 13 9 9 9 9 9 11 9 6 5 6 8 6 6 5 4 4 4 3 3 3 3 3 3 3
16 16 15 10 9 8 13 12 8 7 8 10 10 9 8 5 6 5 5 5 7 6 4 3 4 3 3 3 4 3 2 2
15 16 18 9 9 14 11 8 8 7 7 7 7 6 6 5 6 6 5 5 5 7 7 5 3 3 3 4 3 2 2 2
12 13 10 9 8 7 7 8 8 7 7 7 7 7 7 7 6 6 5 5 4 5 5 4 4 3 4 3 2 2 3 3
12 10 9 8 7 7 7 7 7 6 7 6 7 7 7 6 6 6 5 5 4 4 5 4 3 3 3 3 3 3 3 3
11 10 8 8 7 8 7 7 7 7 7 7 6 7 6 6 6 5 5 5 5 4 4 4 4 4 4 3 4 4 3 3
13 9 9 9 7 7 8 9 9 8 8 8 8 8 7 6 6 5 5 5 4 4 4 4 4 4 4 4 4 3 4 5
9 7 7 6 6 6 8 7 7 7 7 7 6 6 6 6 6 6 5 5 4 4 4 3 4 3 3 4 5 5 7 7

GFSFLT2_con_lsi_036.txt.gz
Lid_Strength_Index
11 10 10 14 14 13 17 17 18 17 15 11 9 9 7 6 6 6 5 5 4 4 3 3 3 3 2 2 2 2 2 1
11 10 11 13 12 15 18 19 20 18 16 14 11 10 9 8 7 6 5 4 4 4 3 3 2 2 2 2 2 2 1 1
12 13 12 15 15 17 15 17 19 20 17 12 10 9 9 9 7 6 5 5 4 4 3 3 2 2 2 2 2 2 2 1
15 12 10 10 13 15 17 18 18 18 17 11 10 8 7 8 8 6 5 4 4 3 3 3 3 3 3 2 2 2 2 2
17 14 14 14 13 13 14 17 17 18 17 11 11 9 8 7 8 6 5 5 4 4 4 3 3 3 3 2 2 2 2 2
19 17 15 16 14 13 13 15 15 15 15 13 11 10 9 8 7 7 6 5 5 4 4 3 3 3 3 2 2 2 2 2
16 14 14 14 14 14 14 13 15 13 14 13 11 10 9 8 6 5 5 5 5 4 4 4 3 3 3 2 2 2 2 2
17 14 14 15 14 13 13 13 14 13 14 11 10 10 9 8 7 6 6 5 5 4 4 4 4 3 3 3 2 2 2 2
20 15 15 16 14 13 13 12 13 14 12 11 11 11 10 9 9 8 6 5 5 4 4 4 4 3 3 3 2 2 3 2
19 17 20 15 12 11 12 11 11 12 11 10 10 9 9 8 8 8 7 5 4 4 3 3 3 3 2 2 3 3 3 3
19 19 16 14 11 11 12 12 10 11 10 10 9 9 10 9 8 8 7 5 4 4 4 3 4 3 3 3 3 3 3 3
18 19 20 14 9 8 9 15 9 9 9 10 10 12 10 7 6 6 6 5 4 4 4 4 4 3 3 3 3 3 3 3
18 18 16 12 9 8 15 13 9 8 9 9 10 8 7 6 5 5 5 5 4 4 3 3 3 3 3 3 4 3 2 2
17 18 19 8 9 13 10 8 8 8 8 8 9 8 6 5 5 4 4 4 3 6 6 4 3 3 4 4 2 2 2 2
13 15 10 8 9 7 7 8 7 7 7 7 7 6 6 6 6 5 5 5 4 4 4 3 3 3 3 3 2 2 2 2
12 9 9 8 7 6 6 7 7 6 6 6 7 6 6 6 6 5 5 5 4 4 4 4 3 3 3 2 2 2 3 3
11 9 8 8 7 7 6 6 7 6 6 6 6 6 6 6 5 5 5 4 4 4 4 4 3 3 3 3 3 4 3 3
12 9 9 9 7 6 6 7 7 7 6 5 5 6 6 6 6 5 5 4 4 4 5 4 3 3 3 4 3 4 5 5
9 6 7 6 6 5 6 7 7 7 6 7 6 5 5 5 5 6 5 4 4 4 4 3 3 3 4 4 4 5 5 5